Mountain Home, AR

12:33 PM CST on December 14, 2019 (GMT -0600)
Baxter County Regional

Weather History for KBPK - October, 2019

Change the Weather History Date:

Thursday, October 17, 2019

  Actual Average (KFLP) Record (KFLP)
Temperature  
Mean Temperature 52 °F -  
Max Temperature 66 °F 69 °F 87 °F (2016)
Min Temperature 39 °F 46 °F 28 °F (2001)
Degree Days  
Heating Degree Days 12    
Growing Degree Days 2 (Base 50)    
Moisture  
Dew Point 43 °F    
Average Humidity 76    
Maximum Humidity 100    
Minimum Humidity 45    
Precipitation  
Precipitation 0.00 in - - ()
Sea Level Pressure  
Sea Level Pressure 30.05 in    
Wind  
Wind Speed 2 mph (SSE)    
Max Wind Speed 7 mph    
Max Gust Speed -    
Visibility 10 miles    
Events      
Averages and records for this station are not official NWS values.
T = Trace of Precipitation, MM = Missing Value Source: NWS Daily Summary

Daily Weather History Graph

Daily Weather History Graph

Search for Another Location

Airport or City:

Astronomy

Oct. 17, 2019 Rise Set
Actual Time 7:18 AM CDT 6:31 PM CDT
Civil Twilight 6:52 AM CDT 6:57 PM CDT
Nautical Twilight 6:22 AM CDT 7:27 PM CDT
Astronomical Twilight 5:52 AM CDT 7:57 PM CDT
Moon 9:08 PM CDT (10/17) 10:45 AM CDT (10/17)
Length of Visible Light 12h 04m
Length of Day
11h 12m
Waning Gibbous, 86% of the Moon is Illuminated
Oct 17
Waning Gibbous
Oct 21
Last Quarter
Oct 27
New
Nov 4
First Quarter
Nov 12
Full

Hourly Weather History & Observations

Time (CDT) Temp. Windchill Dew Point Humidity Pressure Visibility Wind Dir Wind Speed Gust Speed Precip Events Conditions
12:53 AM 44.1 °F - 41.0 °F 89% 30.10 in 10.0 mi Calm Calm - N/A   Clear
1:53 AM 42.1 °F - 39.9 °F 92% 30.11 in 10.0 mi Calm Calm - N/A   Clear
2:53 AM 41.0 °F - 39.9 °F 96% 30.12 in 10.0 mi Calm Calm - N/A   Clear
4:53 AM 39.9 °F - 39.0 °F 97% 30.11 in 10.0 mi Calm Calm - N/A   Clear
5:53 AM 39.0 °F - 39.0 °F 100% 30.11 in 10.0 mi Calm Calm - N/A   Clear
6:53 AM 39.0 °F - 37.9 °F 96% 30.12 in 10.0 mi Calm Calm - N/A   Clear
7:53 AM 41.0 °F 37.1 °F 39.9 °F 96% 30.11 in 10.0 mi East 5.8 mph - N/A   Clear
8:53 AM 46.0 °F - 44.1 °F 93% 30.12 in 10.0 mi Calm Calm - N/A   Clear
9:53 AM 48.9 °F - 45.0 °F 86% 30.12 in 10.0 mi SSW 3.5 mph - N/A   Clear
10:53 AM 54.0 °F - 44.1 °F 69% 30.10 in 10.0 mi Variable 3.5 mph - N/A   Clear
11:53 AM 57.0 °F - 45.0 °F 64% 30.07 in 10.0 mi SSE 5.8 mph - N/A   Clear
12:53 PM 59.0 °F - 45.0 °F 60% 30.06 in 10.0 mi SSW 5.8 mph - N/A   Clear
1:53 PM 63.0 °F - 44.1 °F 50% 30.03 in 10.0 mi Variable 4.6 mph - N/A   Clear
2:53 PM 64.0 °F - 44.1 °F 48% 30.01 in 10.0 mi West 5.8 mph - N/A   Clear
3:53 PM 66.0 °F - 44.1 °F 45% 29.99 in 10.0 mi South 6.9 mph - N/A   Clear
4:53 PM 64.9 °F - 45.0 °F 48% 29.98 in 10.0 mi South 3.5 mph - N/A   Clear
5:53 PM 63.0 °F - 46.0 °F 54% 29.98 in 10.0 mi SSE 4.6 mph - N/A   Clear
6:53 PM 57.0 °F - 46.0 °F 67% 29.98 in 10.0 mi SE 3.5 mph - N/A   Clear
7:53 PM 55.0 °F - 44.1 °F 67% 29.99 in 10.0 mi SE 3.5 mph - N/A   Clear
8:53 PM 55.0 °F - 45.0 °F 69% 29.97 in 10.0 mi SSE 3.5 mph - N/A   Clear
9:53 PM 51.1 °F - 46.0 °F 83% 29.98 in 10.0 mi SSE 3.5 mph - N/A   Clear
10:53 PM 51.1 °F - 46.0 °F 83% 29.98 in 10.0 mi SSE 3.5 mph - N/A   Clear
11:53 PM 50.0 °F - 46.0 °F 86% 29.96 in 10.0 mi SE 3.5 mph - N/A   Clear